Orbital elements of SL-12 R/B(2)
| Launched | 24 May 1996 |
| Flight ended | – |
| Launch site | Tyuratam Missile and Space Center, Kazakhstan (Also known as Baikonur Cosmodrome) |
| Owner | Commonwealth of Independent States (former USSR) |
| NORAD ID | 23883 |
| Date fetched |
Epoch osculation |
Inc. [°] |
Ecc. | RA asc node [hr] |
Arg Peri. [°] |
Mean anom [°] |
Mean motion [rev/day] |
Abs. mag |
| Date fetched |
Epoch osculation |
Inc. [°] |
Ecc. | RA asc node [hr] |
Arg Peri. [°] |
Mean anom [°] |
Mean motion [rev/day] |
Abs. mag |
| 2026 May 05 17:57 | 2026 May 05 11:17:49 | 15.2876 | 0.00290 | 23.8845 | 98.8777 | 259.1803 | 0.97946 | – |
| 2026 May 04 17:57 | 2026 Apr 30 08:17:36 | 15.2871 | 0.00290 | 23.8869 | 98.7986 | 259.1803 | 0.97946 | – |
| 2026 May 03 17:57 | 2026 Apr 30 08:17:36 | 15.2871 | 0.00290 | 23.8869 | 98.7986 | 259.1803 | 0.97946 | – |
| 2026 May 02 17:57 | 2026 Apr 30 08:17:36 | 15.2871 | 0.00290 | 23.8869 | 98.7986 | 259.1803 | 0.97946 | – |
| 2026 May 01 17:56 | 2026 Apr 30 08:17:36 | 15.2871 | 0.00290 | 23.8869 | 98.7986 | 259.1803 | 0.97946 | – |
| 2026 Apr 30 17:56 | 2026 Apr 30 08:17:36 | 15.2871 | 0.00290 | 23.8869 | 98.7986 | 259.1803 | 0.97946 | – |
| 2026 Apr 29 17:57 | 2026 Apr 24 05:22:10 | 15.2865 | 0.00290 | 23.8899 | 98.5123 | 259.1803 | 0.97946 | – |
| 2026 Apr 28 17:56 | 2026 Apr 24 05:22:10 | 15.2865 | 0.00290 | 23.8899 | 98.5123 | 259.1803 | 0.97946 | – |
| 2026 Apr 27 17:58 | 2026 Apr 24 05:22:10 | 15.2865 | 0.00290 | 23.8899 | 98.5123 | 259.1803 | 0.97946 | – |
| 2026 Apr 26 17:58 | 2026 Apr 24 05:22:10 | 15.2865 | 0.00290 | 23.8899 | 98.5123 | 259.1803 | 0.97946 | – |
| 2026 Apr 25 17:58 | 2026 Apr 24 05:22:10 | 15.2865 | 0.00290 | 23.8899 | 98.5123 | 259.1803 | 0.97946 | – |
| 2026 Apr 24 17:59 | 2026 Apr 24 05:22:10 | 15.2865 | 0.00290 | 23.8899 | 98.5123 | 259.1803 | 0.97946 | – |
| 2026 Apr 23 17:57 | 2026 Apr 18 14:24:34 | 15.2861 | 0.00290 | 23.8927 | 98.1943 | 259.1803 | 0.97946 | – |
| 2026 Apr 22 17:57 | 2026 Apr 18 14:24:34 | 15.2861 | 0.00290 | 23.8927 | 98.1943 | 259.1803 | 0.97946 | – |
| 2026 Apr 21 17:57 | 2026 Apr 18 14:24:34 | 15.2861 | 0.00290 | 23.8927 | 98.1943 | 259.1803 | 0.97946 | – |
| 2026 Apr 20 17:57 | 2026 Apr 18 14:24:34 | 15.2861 | 0.00290 | 23.8927 | 98.1943 | 259.1803 | 0.97946 | – |
| 2026 Apr 19 17:58 | 2026 Apr 18 14:24:34 | 15.2861 | 0.00290 | 23.8927 | 98.1943 | 259.1803 | 0.97946 | – |
| 2026 Apr 18 17:56 | 2026 Apr 12 13:01:38 | 15.2856 | 0.00288 | 23.8957 | 98.0460 | 259.1803 | 0.97946 | – |
| 2026 Apr 16 17:57 | 2026 Apr 12 13:01:38 | 15.2856 | 0.00288 | 23.8957 | 98.0460 | 259.1803 | 0.97946 | – |
| 2026 Apr 14 17:57 | 2026 Apr 12 13:01:38 | 15.2856 | 0.00288 | 23.8957 | 98.0460 | 259.1803 | 0.97946 | – |
| 2026 Apr 13 17:57 | 2026 Apr 12 13:01:38 | 15.2856 | 0.00288 | 23.8957 | 98.0460 | 259.1803 | 0.97946 | – |
| 2026 Apr 12 17:57 | 2026 Apr 08 10:06:19 | 15.2853 | 0.00289 | 23.8977 | 98.1667 | 259.1803 | 0.97946 | – |
| 2026 Apr 11 17:57 | 2026 Apr 08 10:06:19 | 15.2853 | 0.00289 | 23.8977 | 98.1667 | 259.1803 | 0.97946 | – |
| 2026 Apr 10 17:58 | 2026 Apr 08 10:06:19 | 15.2853 | 0.00289 | 23.8977 | 98.1667 | 259.1803 | 0.97946 | – |
| 2026 Apr 09 18:01 | 2026 Apr 08 10:06:19 | 15.2853 | 0.00289 | 23.8977 | 98.1667 | 259.1803 | 0.97946 | – |
| 2026 Apr 08 17:57 | 2026 Apr 08 10:06:19 | 15.2853 | 0.00289 | 23.8977 | 98.1667 | 259.1803 | 0.97946 | – |